Location: Civry
(47.2902°N, 4.6156°E)
Time: 17:09:53
(UTC+00:00)

MOS 1 - Pass Details

Date: 09 April 2020
Orbit: 879 x 891 km, 99.2° (Epoch: 29 May)

Event Time Altitude Azimuth Distance (km) Brightness Sun altitude
Rises 19:11:29 0° 162° (SSE) 3,467 7.0 -8.7°
Reaches altitude 10° 19:13:51 10° 163° (SSE) 2,534 6.3 -9.1°
Maximum altitude 19:19:30 90° 95° (E) 891 4.3 -10.0°
Drops below altitude 10° 19:25:13 10° 345° (NNW) 2,559 7.3 -10.8°
Sets 19:27:38 0° 346° (NNW) 3,504 8.0 -11.2°
